Regional Weather Roundup
Issued by NWS

Home | Current Version | Previous Version | Graphics & Text | Print | Product List | Glossary On
Versions: 1 2 3 4 5 6 7 8 9 10 11 12 13 14 15 16 17 18 19 20 21 22 23 24 25 26 27 28 29 30 31 32 33 34 35 36 37 38 39 40 41 42 43 44 45 46 47 48 49 50
000
ASUS43 KBIS 160202
RWRND

NORTH DAKOTA REGIONAL WEATHER ROUNDUP
NATIONAL WEATHER SERVICE BISMARCK ND
800 PM CST SUN JAN 15 2017

NOTE: "FAIR" INDICATES FEW OR NO CLOUDS BELOW 12,000 FEET WITH NO
SIGNIFICANT WEATHER AND/OR OBSTRUCTIONS TO VISIBILITY.


NDZ001>003-009>011-017-160300-
NORTHWEST NORTH DAKOTA

CITY           SKY/WX    TMP DP  RH WIND       PRES   REMARKS
WILLISTON      FAIR      14   6  70 SW12      29.99R WCI   0
MINOT          FAIR      19   9  65 SW9       29.95S WCI   8
$$

NDZ018>021-031>035-040>046-160300-
SOUTHWEST NORTH DAKOTA

CITY           SKY/WX    TMP DP  RH WIND       PRES   REMARKS
BISMARCK       FAIR       2  -4  76 E5        30.04F WCI  -8
DICKINSON      FAIR      24   7  48 SW10      29.97R WCI  14
GARRISON         N/A     12   6  77 W3        29.97F
HETTINGER ARPT CLEAR      6   1  80 CALM      30.03R
$$

NDZ004>008-012>016-024-026-027-054-160300-
NORTHEAST NORTH DAKOTA

CITY           SKY/WX    TMP DP  RH WIND       PRES   REMARKS
GRAND FORKS    CLOUDY    13   6  74 S12       30.03R WCI  -1
GRND FRKS AFB  CLOUDY    14   6  68 S8        30.01F WCI   3
DEVILS LAKE    FAIR      15   7  70 SW13      29.99F WCI   1
$$

NDZ022-023-025-028>030-036>039-047>053-160300-
SOUTHEAST NORTH DAKOTA

CITY           SKY/WX    TMP DP  RH WIND       PRES   REMARKS
FARGO          CLOUDY    15  11  83 S15       30.10R WCI   0
JAMESTOWN      FAIR      11   6  81 S8        30.02F WCI  -1
$$





USA.gov is the U.S. government's official web portal to all federal, state and local government web resources and services.